Regional Weather Roundup
Issued by NWS

Home | Current Version | Previous Version | Graphics & Text | Print | Product List | Glossary On
Versions: 1 2 3 4 5 6 7 8 9 10 11 12 13 14 15 16 17 18 19 20 21 22 23 24 25 26 27 28 29 30 31 32 33 34 35 36 37 38 39 40 41 42 43 44 45 46 47 48 49 50
000
ASUS45 KCYS 271110
RWRWY

WYOMING REGIONAL WEATHER ROUNDUP
NATIONAL WEATHER SERVICE CHEYENNE WY
500 AM MDT WED AUG 27 2014

NOTE:  "FAIR" INDICATES FEW OR NO CLOUDS BELOW 12,000 FEET
WITH NO SIGNIFICANT WEATHER AND/OR OBSTRUCTIONS TO VISIBILITY.

WYZ001-271200-
YELLOWSTONE NATIONAL PARK

CITY           SKY/WX    TMP DP  RH WIND       PRES   REMARKS
LK YELLOWSTONE   N/A     34  33  96 CALM      30.38S
W YELLOWSTONE  NOT AVBL

$$
WYZ002>013-054>058-071-098>099-271200-
NORTHERN WYOMING

CITY           SKY/WX    TMP DP  RH WIND       PRES   REMARKS
JACKSON        MOCLDY    43  43 100 NE5       30.29S
CODY           PTCLDY    57  46  67 S3        30.19S
GREYBULL       CLEAR     54  47  77 SE5       30.13F
WORLAND        NOT AVBL
SHERIDAN       CLEAR     49  46  90 CALM      30.14F
BUFFALO        PTCLDY    56  45  66 SW6       30.19F
GILLETTE       PTCLDY    53  51  93 CALM      30.15F
HULETT         FAIR      52  50  93 MISG      30.17
NEWCASTLE      FAIR      55  54  94 MISG      30.17

$$
WYZ014>020-022>026-101>103-271200-
CENTRAL WYOMING

CITY           SKY/WX    TMP DP  RH WIND       PRES   REMARKS
BIG PINEY      CLOUDY    49  46  90 CALM      30.29F
PINEDALE       CLOUDY    46  45  93 W5        30.30F
DUBOIS         PTSUNNY   45  37  76 NW8       30.32S
LANDER         CLOUDY    60  47  61 NW9       30.19F
RIVERTON       MOCLDY    56  47  71 N3        30.21S
CASPER         CLOUDY    56  53  90 CALM      30.19F
DOUGLAS        FOG       56  56 100 CALM      30.18F VSB 1/4

$$
WYZ021-027>030-104>119-271200-
SOUTHERN WYOMING

CITY           SKY/WX    TMP DP  RH WIND       PRES   REMARKS
EVANSTON       CLOUDY    50  45  83 S5        30.29S
KEMMERER       CLOUDY    50  45  81 NW3       30.30S
FORT BRIDGER   CLOUDY    52  47  83 W5        30.31R
ROCK SPRINGS   LGT RAIN  52  46  80 SE9       30.29S
DIXON          RAIN      53  51  94 CALM      30.31S
RAWLINS        CLOUDY    55  46  71 SW7       30.25S
SARATOGA       CLOUDY    50  46  87 MISG      30.26F
LARAMIE        CLOUDY    53  45  74 NE5       30.26F
CHEYENNE       MOCLDY    57  52  83 N5        30.21F
TORRINGTON     CLOUDY    61  59  93 N3        30.12F
PINE BLUFFS    CLOUDY    55  55 100 CALM      30.17F

$$


USA.gov is the U.S. government's official web portal to all federal, state and local government web resources and services.